HAIYANG-1B

Last updated on Fri Sep 19 2025 00:02:30 GMT+0000 (Coordinated Universal Time)

1 31113U 07010A 25260.93720631 .00000103 00000+0 54922-4 0 9992 2 31113 98.3236 248.7873 0012370 291.0888 68.8973 14.30921753961697
UTC large
Height (km)
Speed (km/s)
/
Latitude / Longitude
Inclination (degrees)
Orbital Period (minutes)
Azimuth
Elevation
Range (km)
Doppler Factor

Next 0 passes for location: London (51.5072 / 0.1276)

Sorry there are no passes over London.